Location: Sungai Laei
(2.6000°N, 113.7167°E)
Time: 09:49:54
(UTC+00:00)

Meteor 2-20 - Pass Details

Date: 22 May 2022
Orbit: 938 x 959 km, 82.5° (Epoch: 06 July)

Event Time Altitude Azimuth Distance (km) Brightness Sun altitude
Exits shadow 20:49:22 28° 207° (SSW) 1,721 5.4 -20.6°
Maximum altitude 20:52:33 56° 273° (W) 1,122 4.5 -19.8°
Drops below altitude 10° 20:58:33 10° 351° (N) 2,679 7.0 -18.5°
Sets 21:01:06 0° 355° (N) 3,624 7.7 -17.9°
